Vorticity
5 6 8 9 10 9 8 7 6 6 7 9 9 9 9 9 9 9 9 9 9 10 10 8 6 5 5
7 7 7 8 8 10 10 10 11 11 11 11 12 13 12 12 12 12 13 13 11 10 9 9 10 7 6
7 8 9 11 11 12 12 14 14 14 16 17 16 16 17 17 16 15 14 14 13 12 12 11 9 8 9
9 10 12 12 15 17 18 18 18 18 17 15 15 16 16 17 19 19 19 20 19 17 17 14 12 10 9
12 15 16 16 16 15 11 8 10 10 13 12 13 12 13 13 12 12 13 13 15 18 20 19 17 15 13
16 16 15 13 8 7 9 10 15 19 18 20 23 23 20 17 17 17 15 15 13 15 16 18 21 20 16
12 12 11 8 9 12 13 12 11 17 13 12 16 14 15 21 22 19 18 16 17 17 15 17 16 19 24
13 10 10 11 12 11 13 10 11 14 11 9 13 11 13 17 21 22 18 17 16 15 16 17 16 16 17
13 10 12 11 12 10 11 9 9 10 11 11 13 13 9 12 12 15 20 19 15 14 14 13 14 15 15
10 10 10 11 9 9 9 9 9 9 11 9 10 12 11 17 14 15 16 15 19 19 15 13 14 16 16
10 10 9 8 8 10 10 9 9 10 13 10 10 11 10 9 13 15 15 16 19 13 16 16 17 12 18
10 9 8 8 9 9 10 10 9 10 12 11 10 11 10 12 13 14 14 14 12 10 14 12 9 19 25
10 8 8 8 8 11 12 11 10 11 11 9 7 7 8 10 11 12 14 13 15 17 11 17 20 30 29
9 7 9 8 8 11 13 13 12 14 16 17 13 9 9 10 10 12 12 14 16 19 15 7 39 14 10
10 9 10 9 10 13 13 12 12 13 14 16 14 14 15 12 11 11 12 11 17 9 15 1 40 20 12
12 10 11 10 11 12 10 9 10 10 11 12 13 14 16 19 17 14 13 11 15 11 13 1 26 27 47
12 11 12 12 13 9 8 9 10 11 10 13 12 11 12 15 18 17 12 12 15 18 6 13 13 9 20
Height
3077 3074 3071 3067 3063 3059 3053 3049 3045 3041 3039 3036 3033 3030 3027 3024 3023 3021 3019 3019 3019 3019 3018 3018 3019 3019 3019
3063 3061 3059 3055 3049 3047 3042 3037 3031 3026 3025 3021 3017 3014 3012 3009 3006 3004 3003 3002 3002 3002 3003 3003 3003 3004 3006
3050 3046 3043 3042 3037 3033 3028 3025 3020 3015 3010 3006 3002 2999 2996 2994 2991 2987 2985 2984 2984 2984 2985 2986 2987 2988 2989
3039 3034 3029 3025 3022 3017 3014 3011 3006 3004 3000 2995 2991 2987 2983 2980 2976 2973 2970 2968 2967 2967 2967 2967 2969 2970 2972
3030 3024 3019 3014 3009 3005 2999 2994 2993 2991 2986 2983 2980 2976 2973 2968 2963 2960 2957 2954 2951 2949 2949 2950 2950 2952 2954
3019 3015 3010 3005 2999 2994 2989 2983 2979 2977 2969 2965 2966 2963 2961 2956 2952 2949 2945 2941 2938 2935 2934 2934 2934 2936 2937
3009 3006 3001 2996 2990 2986 2981 2976 2971 2967 2960 2954 2953 2947 2944 2942 2941 2936 2932 2928 2925 2923 2922 2920 2919 2919 2921
3000 2996 2992 2988 2983 2978 2973 2968 2965 2960 2953 2947 2946 2939 2935 2933 2929 2926 2922 2918 2915 2912 2910 2908 2906 2906 2906
2994 2989 2985 2981 2976 2971 2966 2961 2957 2953 2947 2941 2938 2930 2926 2924 2920 2917 2913 2910 2906 2902 2899 2897 2895 2893 2892
2987 2983 2979 2975 2970 2965 2960 2954 2950 2945 2942 2935 2929 2923 2916 2916 2911 2908 2904 2901 2897 2894 2890 2887 2885 2881 2881
2980 2976 2972 2968 2964 2959 2953 2948 2942 2938 2935 2927 2921 2917 2911 2903 2903 2899 2895 2892 2888 2886 2882 2879 2876 2874 2870
2972 2968 2965 2961 2956 2951 2947 2942 2936 2932 2928 2922 2915 2910 2904 2899 2894 2892 2888 2885 2882 2878 2874 2871 2868 2864 2862
2964 2961 2957 2953 2949 2945 2940 2935 2929 2926 2921 2916 2909 2903 2898 2893 2887 2884 2880 2877 2875 2871 2868 2864 2858 2854 2852
2956 2953 2949 2945 2941 2937 2932 2927 2921 2918 2914 2909 2903 2897 2892 2888 2883 2878 2876 2870 2868 2865 2861 2858 2852 2849 2848
2948 2945 2941 2937 2934 2930 2925 2920 2915 2910 2906 2902 2897 2891 2886 2881 2876 2874 2869 2866 2863 2860 2857 2853 2848 2846 2845
2941 2937 2934 2930 2926 2923 2918 2914 2909 2904 2899 2895 2889 2884 2880 2878 2873 2869 2866 2861 2858 2857 2855 2851 2847 2845 2843
2933 2930 2926 2923 2920 2916 2912 2908 2903 2898 2894 2889 2883 2878 2872 2869 2869 2865 2860 2858 2854 2854 2852 2850 2848 2845 2843